Aérodrome :
LOGIN :

S'inscrire | Disclaimer

   EN    FR    IT 

 










Légende :    VFR   VFR Marginal   IFR   IFR Intensif   IFR Très Intensif
Visi : 
Plafond : 
>= 8 km
>= 3000ft
5 à 8 km
1000 à 3000 ft
1500m à 5 km
500 à 1000 ft
800 à 1500m
200 à 500 ft
< 800m
< 200 ft
Symboles :   Orages  Brouillard  Fortes neiges  Fortes précipitations  Vent > 20 kt
SIGMETs :   Divers  Orages  Givrage  Turbulence  Onde Orograph.  Cendres Volcan.







- Altitude de l'aérodrome : 106 ft
- Code IATA : XDA
- Voir les cartes d'approche


LFBY - Dax Seyresse

DERNIER METAR :
  • 261200Z 28003KT 220V340 9999 SCT020 OVC031 21/16 Q1018

METARs EXPIRÉS :
  • 261100Z 26003KT 220V300 9999 SCT020 OVC033 20/16 Q1018
  • 261000Z 23004KT 180V260 9999 SCT020 BKN036 20/16 Q1018

TAF TAF LFBY
Valide du 26 à 09h jusqu'au 26 à 18h UTC


260800Z 2609/2618 24005KT 9999 SCT020 BKN040
PROB30
TEMPO 2611/2613 5000 -RA BKN015 BKN020
Pas de NOTAMs connus pour ce terrain.



MET'MAP, la Météo Aéronautique d'un coup d'oeil ! - Copyright ORBIFLY Décembre 2007 - Disclaimer

ORBIFLY MET'MAP TEAM :

Programmation & Développement : Alexandra Zaïnal
Conception & Développement : Baudouin d'Aumeries
Co-Programmation & Développement : Marc-Olivier Méhu
Soutien technique & logistique : Manuel Goepfert

Contact : metmap@orbifly.com




SOURCES & CREDITS :

   NOAA